When you browse on this site, cookies collect data to enhance your experience and personalize the content and advertising you see.
Visit our Privacy Policy to learn more. By continuing to use the site, you agree to this use of cookies and data.
  • In Hungary
  • List of Countries
  • For 7 days
  • Water Temperature
  • Satellite Maps
  • Weather Map
  • News
  • Weather Widgets
  • user-avatar
    Login

    Hourly Weather Denia

    Today, 14 December, Friday

    Time Temperature Precipitation Wind Pressure Humidity
    00:00 +9°C° 0 mm 14 mps 750 mmHg 70%
    01:00 +9°C° 0.9 mm 15 mps 750 mmHg 69%
    02:00 +9°C° 0.9 mm 15 mps 751 mmHg 68%
    03:00 +8°C° 0.9 mm 15 mps 752 mmHg 67%
    04:00 +8°C° 0 mm 14 mps 752 mmHg 68%
    05:00 +6°C° 0 mm 14 mps 753 mmHg 68%
    06:00 +7°C° 0 mm 10 mps 754 mmHg 72%
    07:00 +7°C° 0 mm 10 mps 755 mmHg 70%
    08:00 +8°C° 0 mm 10 mps 755 mmHg 67%
    09:00 +8°C° 0 mm 11 mps 756 mmHg 64%
    10:00 +11°C° 0 mm 10 mps 757 mmHg 59%
    11:00 +13°C° 0 mm 9 mps 757 mmHg 53%
    12:00 +15°C° 0 mm 8 mps 758 mmHg 48%
    13:00 +15°C° 0 mm 6 mps 758 mmHg 47%
    14:00 +16°C° 0 mm 5 mps 758 mmHg 46%
    15:00 +17°C° 0 mm 4 mps 758 mmHg 45%
    16:00 +15°C° 0 mm 4 mps 759 mmHg 51%
    17:00 +13°C° 0 mm 4 mps 759 mmHg 56%
    18:00 +12°C° 0 mm 3 mps 760 mmHg 61%
    19:00 +12°C° 0 mm 4 mps 760 mmHg 63%
    20:00 +10°C° 0 mm 5 mps 761 mmHg 64%
    21:00 +10°C° 0 mm 5 mps 761 mmHg 65%
    22:00 +10°C° 0 mm 5 mps 761 mmHg 66%
    23:00 +9°C° 0 mm 5 mps 762 mmHg 66%

    Tomorrow, 15 December, Saturday

    Time Temperature Precipitation Wind Pressure Humidity
    00:00 +9°C° 0 mm 5 mps 762 mmHg 67%
    01:00 +9°C° 0 mm 6 mps 762 mmHg 69%
    02:00 +9°C° 0 mm 7 mps 762 mmHg 71%
    03:00 +9°C° 0 mm 7 mps 761 mmHg 72%
    04:00 +9°C° 0 mm 7 mps 762 mmHg 72%
    05:00 +9°C° 0 mm 8 mps 762 mmHg 72%
    06:00 +9°C° 0 mm 8 mps 762 mmHg 71%
    07:00 +10°C° 0 mm 8 mps 762 mmHg 70%
    08:00 +10°C° 0 mm 7 mps 762 mmHg 69%
    09:00 +11°C° 0 mm 7 mps 763 mmHg 67%
    10:00 +13°C° 0 mm 6 mps 762 mmHg 65%
    11:00 +15°C° 0 mm 6 mps 762 mmHg 63%
    12:00 +16°C° 0 mm 5 mps 762 mmHg 61%
    13:00 +17°C° 0 mm 5 mps 762 mmHg 60%
    14:00 +17°C° 0 mm 5 mps 761 mmHg 60%
    15:00 +17°C° 0 mm 5 mps 761 mmHg 60%
    16:00 +17°C° 0 mm 6 mps 761 mmHg 66%
    17:00 +16°C° 0 mm 6 mps 761 mmHg 72%
    18:00 +15°C° 0 mm 7 mps 761 mmHg 78%
    19:00 +15°C° 0 mm 7 mps 762 mmHg 78%
    20:00 +15°C° 0 mm 7 mps 762 mmHg 79%
    21:00 +15°C° 0 mm 7 mps 762 mmHg 79%
    22:00 +14°C° 0 mm 7 mps 762 mmHg 79%
    23:00 +14°C° 0 mm 7 mps 761 mmHg 78%

    Day after tomorrow, 16 December, Sunday

    Time Temperature Precipitation Wind Pressure Humidity
    00:00 +14°C° 0 mm 7 mps 761 mmHg 78%
    01:00 +14°C° 0 mm 7 mps 761 mmHg 78%
    02:00 +14°C° 0 mm 6 mps 761 mmHg 79%
    03:00 +14°C° 0 mm 6 mps 760 mmHg 79%
    04:00 +13°C° 0 mm 6 mps 760 mmHg 79%
    05:00 +13°C° 0 mm 5 mps 760 mmHg 79%
    06:00 +13°C° 0 mm 5 mps 760 mmHg 80%
    07:00 +14°C° 0 mm 5 mps 760 mmHg 75%
    08:00 +15°C° 0 mm 4 mps 760 mmHg 71%
    09:00 +17°C° 0 mm 4 mps 760 mmHg 67%
    10:00 +18°C° 0 mm 4 mps 760 mmHg 58%
    11:00 +20°C° 0 mm 4 mps 760 mmHg 49%
    12:00 +22°C° 0 mm 4 mps 759 mmHg 40%
    13:00 +22°C° 0 mm 4 mps 759 mmHg 41%
    14:00 +21°C° 0 mm 5 mps 759 mmHg 43%
    15:00 +21°C° 0 mm 5 mps 758 mmHg 45%
    16:00 +20°C° 0 mm 5 mps 759 mmHg 55%
    17:00 +17°C° 0 mm 6 mps 759 mmHg 65%
    18:00 +16°C° 0 mm 6 mps 759 mmHg 75%
    19:00 +15°C° 0 mm 6 mps 760 mmHg 77%
    20:00 +14°C° 0 mm 7 mps 761 mmHg 78%
    21:00 +12°C° 0 mm 7 mps 761 mmHg 79%
    22:00 +12°C° 0 mm 7 mps 762 mmHg 81%
    23:00 +11°C° 0 mm 8 mps 762 mmHg 83%

    17 December, Monday

    Time Temperature Precipitation Wind Pressure Humidity
    00:00 +10°C° 0 mm 8 mps 762 mmHg 85%
    01:00 +10°C° 0 mm 9 mps 763 mmHg 84%
    02:00 +10°C° 0 mm 9 mps 763 mmHg 84%
    03:00 +10°C° 0 mm 9 mps 763 mmHg 83%
    04:00 +10°C° 0 mm 9 mps 763 mmHg 84%
    05:00 +8°C° 0 mm 9 mps 763 mmHg 85%
    06:00 +8°C° 0 mm 9 mps 764 mmHg 85%
    07:00 +9°C° 0 mm 8 mps 764 mmHg 79%
    08:00 +10°C° 0 mm 7 mps 765 mmHg 73%
    09:00 +10°C° 0 mm 7 mps 765 mmHg 67%
    10:00 +11°C° 0 mm 6 mps 765 mmHg 57%
    11:00 +14°C° 0 mm 6 mps 765 mmHg 47%
    12:00 +15°C° 0 mm 5 mps 766 mmHg 38%
    13:00 +15°C° 0 mm 4 mps 765 mmHg 36%
    14:00 +15°C° 0 mm 4 mps 765 mmHg 34%
    15:00 +17°C° 0 mm 3 mps 765 mmHg 32%
    16:00 +14°C° 0 mm 3 mps 765 mmHg 37%
    17:00 +13°C° 0 mm 2 mps 766 mmHg 42%
    18:00 +10°C° 0 mm 2 mps 766 mmHg 47%
    19:00 +10°C° 0 mm 2 mps 766 mmHg 48%
    20:00 +10°C° 0 mm 2 mps 767 mmHg 48%
    21:00 +9°C° 0 mm 2 mps 767 mmHg 48%
    22:00 +9°C° 0 mm 3 mps 767 mmHg 53%
    23:00 +9°C° 0 mm 3 mps 766 mmHg 58%

    18 December, Tuesday

    Time Temperature Precipitation Wind Pressure Humidity
    00:00 +9°C° 0 mm 3 mps 766 mmHg 63%
    01:00 +9°C° 0 mm 3 mps 766 mmHg 68%
    02:00 +8°C° 0 mm 3 mps 766 mmHg 73%
    03:00 +8°C° 0 mm 3 mps 766 mmHg 79%
    04:00 +8°C° 0 mm 3 mps 765 mmHg 80%
    05:00 +9°C° 0 mm 3 mps 765 mmHg 81%
    06:00 +9°C° 0 mm 3 mps 765 mmHg 83%
    07:00 +10°C° 0 mm 3 mps 765 mmHg 80%
    08:00 +11°C° 0 mm 4 mps 765 mmHg 78%
    09:00 +12°C° 0 mm 4 mps 765 mmHg 76%
    10:00 +13°C° 0 mm 4 mps 765 mmHg 68%
    11:00 +15°C° 0 mm 4 mps 764 mmHg 60%
    12:00 +18°C° 0 mm 3 mps 764 mmHg 52%
    13:00 +18°C° 0 mm 4 mps 763 mmHg 48%
    14:00 +19°C° 0 mm 4 mps 763 mmHg 44%
    15:00 +19°C° 0 mm 5 mps 762 mmHg 40%
    16:00 +17°C° 0 mm 5 mps 762 mmHg 45%
    17:00 +15°C° 0 mm 5 mps 763 mmHg 50%
    18:00 +14°C° 0 mm 5 mps 763 mmHg 56%
    19:00 +13°C° 0 mm 5 mps 763 mmHg 58%
    20:00 +13°C° 0 mm 5 mps 763 mmHg 60%
    21:00 +13°C° 0 mm 5 mps 763 mmHg 63%
    22:00 +13°C° 0 mm 5 mps 763 mmHg 62%
    23:00 +13°C° 0 mm 5 mps 763 mmHg 61%

    19 December, Wednesday

    Time Temperature Precipitation Wind Pressure Humidity
    00:00 +13°C° 0 mm 5 mps 762 mmHg 60%
    01:00 +13°C° 0 mm 5 mps 762 mmHg 56%
    02:00 +13°C° 0 mm 5 mps 762 mmHg 53%
    03:00 +13°C° 0 mm 4 mps 762 mmHg 50%
    04:00 +13°C° 0 mm 4 mps 762 mmHg 51%
    05:00 +13°C° 0 mm 4 mps 762 mmHg 52%
    06:00 +14°C° 0 mm 4 mps 762 mmHg 53%
    07:00 +14°C° 0 mm 4 mps 762 mmHg 62%
    08:00 +14°C° 0 mm 4 mps 762 mmHg 71%
    09:00 +14°C° 0 mm 4 mps 763 mmHg 80%
    10:00 +15°C° 0.1 mm 4 mps 762 mmHg 81%
    11:00 +15°C° 0.1 mm 4 mps 762 mmHg 81%
    12:00 +17°C° 0.1 mm 4 mps 762 mmHg 81%
    13:00 +17°C° 0.1 mm 3 mps 762 mmHg 79%
    14:00 +17°C° 0.1 mm 3 mps 761 mmHg 77%
    15:00 +17°C° 0.1 mm 3 mps 761 mmHg 75%
    16:00 +16°C° 0 mm 3 mps 761 mmHg 80%
    17:00 +14°C° 0 mm 4 mps 761 mmHg 84%
    18:00 +13°C° 0 mm 4 mps 762 mmHg 89%
    19:00 +13°C° 0 mm 4 mps 762 mmHg 90%
    20:00 +13°C° 0 mm 4 mps 762 mmHg 91%
    21:00 +12°C° 0 mm 4 mps 762 mmHg 92%
    22:00 +12°C° 0 mm 4 mps 762 mmHg 92%
    23:00 +12°C° 0 mm 4 mps 762 mmHg 92%
    Show more